{"data":{"norad_id":47278,"epoch":"2026-09-19T10:39:58.825440Z","epoch_age_seconds":105686,"freshness":"FRESH","line1":"1 47278U 20100W   26262.44443085 -.00000249  00000+0 -72869-3 0  9992","line2":"2 47278  87.8977 331.9561 0001991  99.3433 260.7921 13.12441406276946","mean_motion":13.12441406,"eccentricity":0.0001991,"inclination_deg":87.8977,"raan_deg":331.9561,"arg_perigee_deg":99.3433,"mean_anomaly_deg":260.7921,"bstar":-0.00072869,"rev_number":27694,"period_min":109.71918391304,"perigee_km":1212.2178974688,"apogee_km":1215.2409786845,"semimajor_km":7591.8664380766,"source":"CELESTRAK","updated_at":"2026-09-20T09:00:44.580076Z"}}